Location: Killarney Provincial Park Observatory
(46.0124°N, 81.4000°W)
Time: 07:38:42
(UTC-04:00)

Iridium 22 - Visible Passes

Search period start: 25 March 2017 00:00
Search period end: 04 April 2017 00:00
Orbit: 776 x 779 km, 86.4° (Epoch: 23 March)

Date Brightness Start Highest point End Pass type
(mag) Time Alt. Az. Time Alt. Az. Time Alt. Az.
25 Mar 7.7 21:12:27 10° NNW 21:16:53 28° W 21:21:17 10° SW visible
26 Mar 6.6 20:38:31 10° NNW 20:43:33 50° W 20:48:33 10° SSW visible
27 Mar 8.8 21:48:10 10° NW 21:49:57 12° WNW 21:51:43 10° W visible
28 Mar 8.3 21:13:01 10° NNW 21:16:49 21° W 21:20:36 10° SW visible
29 Mar 7.4 20:38:50 10° NNW 20:43:33 35° W 20:48:15 10° SSW visible
31 Mar 8.7 21:13:53 10° NW 21:16:42 15° WNW 21:19:31 10° WSW visible
01 Apr 8.1 20:39:17 10° NNW 20:43:31 26° W 20:47:44 10° SW visible
02 Apr 9.4 06:21:21 10° E 06:22:37 11° ENE 06:23:54 10° ENE visible
03 Apr 9.3 21:15:55 10° WNW 21:16:32 10° WNW 21:17:10 10° W visible
